CAPE
0 0 0 0 0 0 0 0 0 0 0 0 0 0 1 0 0 0 0 0 0 0 0 0 1 3 1 0 0 0 2 0 1 1 0 0 1 2 1 2 0 2 4 5 9 16 13 10 5
0 0 0 0 0 11 6 11 0 0 0 0 0 0 0 0 0 0 0 0 0 0 0 1 3 1 1 0 1 1 2 1 2 1 0 0 0 0 0 0 2 3 1 6 4 9 4 2 0
0 0 0 0 0 8 8 2 0 0 0 0 0 0 0 0 0 0 0 0 0 0 0 2 3 1 1 1 0 1 1 2 2 2 1 1 0 0 0 0 0 0 0 2 2 3 3 0 1
0 0 0 0 2 15 19 2 0 0 0 0 0 0 0 0 0 0 0 0 0 0 0 3 1 3 1 1 0 0 1 1 2 2 0 0 0 0 0 0 0 0 0 1 1 1 2 0 16
0 0 23 14 2 7 0 0 0 0 0 0 0 0 0 0 0 0 0 0 0 0 0 1 1 1 1 1 0 0 0 0 0 0 0 0 0 0 0 0 0 0 0 0 0 1 1 2 25
0 0 1 10 38 48 0 0 0 0 0 0 0 0 0 0 0 0 0 0 0 0 0 0 0 0 0 0 0 0 0 0 0 0 0 0 0 0 0 0 0 0 0 0 0 0 1 23 5
0 7 0 1 3 1 0 0 0 0 0 0 0 0 0 0 0 0 0 0 0 0 0 0 0 0 0 0 0 0 0 0 0 0 0 0 0 0 0 0 0 0 0 0 0 5 14 4 0
0 0 12 26 26 11 0 0 0 0 0 0 0 0 0 0 0 0 0 0 0 0 0 0 0 0 0 0 0 0 0 0 0 0 0 0 0 0 0 0 0 0 0 1 4 4 1 2 1
0 0 1 7 11 8 0 0 0 0 0 0 0 0 0 0 0 0 0 0 0 0 0 0 0 0 0 0 0 0 0 0 0 0 0 0 0 0 0 0 0 0 1 1 1 0 0 0 0
0 1 17 1 0 0 0 0 0 0 0 0 0 0 0 0 0 0 0 0 0 0 0 0 0 0 0 0 0 0 0 0 0 0 0 0 0 0 0 0 0 0 0 0 0 0 0 0 0
0 0 36 0 0 0 0 0 0 0 0 0 0 0 0 0 0 0 0 0 0 0 0 0 0 0 0 0 0 0 0 0 0 0 0 0 0 0 0 0 0 0 0 0 0 0 0 0 0
0 0 0 0 0 0 0 0 0 0 0 0 0 0 0 0 0 0 0 0 0 0 0 0 0 0 0 0 0 0 0 0 0 0 0 0 0 0 0 0 0 0 0 0 0 0 0 0 0
0 0 0 0 0 0 0 0 0 0 0 0 0 0 0 0 0 0 0 0 0 0 0 0 0 0 0 0 0 0 0 0 0 0 0 0 0 0 0 0 0 0 0 0 0 0 0 0 0
0 0 0 0 0 0 0 0 0 0 0 0 0 0 0 0 0 0 0 0 0 0 0 0 0 0 0 0 0 0 0 0 0 0 0 0 0 0 0 0 0 0 0 0 0 0 0 0 0
0 0 0 0 0 0 0 0 0 0 0 0 0 0 0 0 0 0 0 0 0 0 0 0 0 0 0 0 0 0 0 0 0 0 0 0 0 0 0 0 0 0 0 0 0 0 0 0 0
0 0 0 0 0 0 0 0 0 0 0 0 0 0 0 0 0 0 0 0 0 0 0 0 0 0 0 0 0 0 0 0 0 0 0 0 0 0 0 0 0 0 0 0 0 0 0 0 0
0 0 0 0 0 0 0 0 0 0 0 0 0 0 0 0 0 0 0 0 0 0 0 0 0 0 0 0 0 0 0 0 0 0 0 0 0 0 0 0 0 0 0 0 0 0 0 0 0
0 0 0 0 0 0 0 0 0 0 0 0 0 0 0 0 0 0 0 0 0 0 0 0 0 0 0 0 0 0 0 0 0 0 0 0 0 0 0 0 0 0 0 0 0 0 0 0 0
0 0 0 0 0 0 0 0 0 0 0 0 0 0 0 0 0 0 0 0 0 0 0 0 0 0 0 0 0 0 0 0 0 0 0 0 0 0 0 0 0 0 0 0 0 0 0 0 0
0 0 0 0 0 0 0 0 0 0 0 0 0 0 0 0 0 0 0 0 0 0 0 0 0 0 0 0 0 0 0 0 0 0 0 0 0 0 0 0 0 0 0 0 0 0 0 0 0
0 0 0 0 0 0 0 0 0 0 0 0 0 0 0 0 0 0 0 0 0 0 0 0 0 0 0 0 0 0 0 0 0 0 0 0 0 0 0 0 0 0 0 0 0 0 0 0 0
0 0 0 0 0 0 0 0 0 0 0 0 0 0 0 0 0 0 0 0 0 0 0 0 0 0 0 0 0 0 0 0 0 0 0 0 0 0 0 0 0 0 0 0 0 0 0 0 0
0 0 0 0 0 0 0 0 0 0 0 0 0 0 0 0 0 0 0 0 0 0 0 0 0 0 0 0 0 0 0 0 0 0 0 0 0 0 0 0 0 0 0 0 0 0 0 0 0
0 0 0 0 0 0 0 0 0 0 0 0 0 0 0 0 0 0 0 0 0 0 0 0 0 0 0 0 0 0 0 0 0 0 0 0 0 0 0 0 0 0 0 0 0 0 0 0 0
0 0 0 0 0 0 0 0 0 0 0 0 0 0 0 0 0 0 0 0 0 0 0 0 0 0 0 0 0 0 0 0 0 0 0 0 0 0 0 0 0 0 0 0 0 0 0 0 0
0 0 0 0 0 0 0 0 0 0 0 0 0 0 0 0 0 0 0 0 0 0 0 0 0 0 0 0 0 0 0 0 0 0 0 0 0 0 0 0 0 0 0 0 0 0 0 0 0
0 0 0 0 0 0 0 0 0 0 0 0 0 0 0 0 0 0 0 0 0 0 0 0 0 0 0 0 0 0 0 0 0 0 0 0 0 0 0 0 0 0 0 0 0 0 0 0 0
0 0 0 0 0 0 0 0 0 0 0 0 0 0 0 0 0 0 0 0 0 0 0 0 0 0 0 0 0 0 0 0 0 0 0 0 0 0 0 0 0 0 0 0 0 0 0 0 0
0 0 0 0 0 0 0 0 0 0 0 0 0 0 0 0 0 0 0 0 0 0 0 0 0 0 0 0 0 0 0 0 0 0 0 0 0 0 0 0 0 0 0 0 0 0 0 0 0
0 0 0 0 0 0 0 0 0 0 0 0 0 0 0 0 0 0 0 0 0 0 0 0 0 0 0 0 0 0 0 0 0 0 0 0 0 0 0 0 0 0 0 0 0 0 0 0 0
CIN
0 0 0 0 0 0 0 0 -5 0 0 0 0 0 -14 0 0 0 0 0 0 0 0 0 0 0 0 0 0 0 0 0 0 0 0 0 0 0 0 0 0 0 0 0 0 0 0 0 -2
0 0 0 0 0 -2 -4 -6 0 0 0 0 0 0 0 0 0 0 0 0 0 0 0 0 0 0 0 0 0 0 0 0 0 0 0 0 0 0 0 0 0 0 0 0 0 0 0 -5 0
0 0 0 0 0 -3 -16 -3 0 0 0 0 0 0 0 0 0 0 0 0 0 0 0 0 0 0 0 0 0 0 0 0 0 0 0 0 0 0 0 0 0 0 0 0 0 0 -2 -3 0
0 0 0 0 -2 -3 -4 -7 0 0 0 0 0 0 0 0 0 0 0 0 0 0 -1 -1 0 0 0 0 0 0 0 0 0 0 0 0 0 0 0 0 0 0 0 0 0 0 0 0 0
0 -5 -3 -2 -1 -3 0 0 0 0 0 0 0 0 0 0 0 0 0 0 0 0 0 0 0 0 0 0 0 0 0 0 0 0 0 0 0 0 0 0 0 0 0 0 0 0 0 0 0
0 0 -13 -5 -3 -3 0 0 0 0 0 0 0 0 0 0 0 0 0 0 0 0 0 0 0 0 0 0 0 0 0 0 0 0 0 0 0 0 0 0 0 0 0 0 0 0 0 0 -2
0 -3 0 -3 -1 -2 0 0 0 0 0 0 0 0 0 0 0 0 0 0 0 0 0 0 0 0 0 0 0 0 0 0 0 0 0 0 0 0 0 0 0 0 0 0 0 0 0 -1 0
0 -3 -2 -11 -18 -29 0 0 0 0 0 0 0 0 0 0 0 0 0 0 0 0 0 0 0 0 0 0 0 0 0 0 0 0 0 0 0 0 0 0 0 0 0 0 0 0 -2 0 0
0 -1 -2 -1 -3 -7 0 0 0 0 0 0 0 0 0 0 0 0 0 0 0 0 0 0 0 0 0 0 0 0 0 0 0 0 0 0 0 0 0 0 0 0 0 0 0 0 0 0 0
0 -6 -38 -3 0 0 0 0 0 0 0 0 0 0 0 0 0 0 0 0 0 0 0 0 0 0 0 0 0 0 0 0 0 0 0 0 0 0 0 0 0 0 0 0 0 0 0 0 0
0 0 -8 0 0 0 0 0 0 0 0 0 0 0 0 0 0 0 0 0 0 0 0 0 0 0 0 0 0 0 0 0 0 0 0 0 0 0 0 0 0 0 0 0 0 0 0 0 0
0 0 0 0 0 0 0 0 0 0 0 0 0 0 0 0 0 0 0 0 0 0 0 0 0 0 0 0 0 0 0 0 0 0 0 0 0 0 0 0 0 0 0 0 0 0 0 0 0
0 0 0 0 0 0 0 0 0 0 0 0 0 0 0 0 0 0 0 0 0 0 0 0 0 0 0 0 0 0 0 0 0 0 0 0 0 0 0 0 0 0 0 0 0 0 0 0 0
0 0 0 0 0 0 0 0 0 0 0 0 0 0 0 0 0 0 0 0 0 0 0 0 0 0 0 0 0 0 0 0 0 0 0 0 0 0 0 0 0 0 0 0 0 0 0 0 0
0 0 0 0 0 0 0 0 0 0 0 0 0 0 0 0 0 0 0 0 0 0 0 0 0 0 0 0 0 0 0 0 0 0 0 0 0 0 0 0 0 0 0 0 0 0 0 0 0
0 0 0 0 0 0 0 0 0 0 0 0 0 0 0 0 0 0 0 0 0 0 0 0 0 0 0 0 0 0 0 0 0 0 0 0 0 0 0 0 0 0 0 0 0 0 0 0 0
0 0 0 0 0 0 0 0 0 0 0 0 0 0 0 0 0 0 0 0 0 0 0 0 0 0 0 0 0 0 0 0 0 0 0 0 0 0 0 0 0 0 0 0 0 0 0 0 0
0 0 0 0 0 0 0 0 0 0 0 0 0 0 0 0 0 0 0 0 0 0 0 0 0 0 0 0 0 0 0 0 0 0 0 0 0 0 0 0 0 0 0 0 0 0 0 0 0
0 0 0 0 0 0 0 0 0 0 0 0 0 0 0 0 0 0 0 0 0 0 0 0 0 0 0 0 0 0 0 0 0 0 0 0 0 0 0 0 0 0 0 0 0 0 0 0 0
0 0 0 0 0 0 0 0 0 0 0 0 0 0 0 0 0 0 0 0 0 0 0 0 0 0 0 0 0 0 0 0 0 0 0 0 0 0 0 0 0 0 0 0 0 0 0 0 0
0 0 0 0 0 0 0 0 0 0 0 0 0 0 0 0 0 0 0 0 0 0 0 0 0 0 0 0 0 0 0 0 0 0 0 0 0 0 0 0 0 0 0 0 0 0 0 0 0
0 0 0 0 0 0 0 0 0 0 0 0 0 0 0 0 0 0 0 0 0 0 0 0 0 0 0 0 0 0 0 0 0 0 0 0 0 0 0 0 0 0 0 0 0 0 0 0 0
0 0 0 0 0 0 0 0 0 0 0 0 0 0 0 0 0 0 0 0 0 0 0 0 0 0 0 0 0 0 0 0 0 0 0 0 0 0 0 0 0 0 0 0 0 0 0 0 0
0 0 0 0 0 0 0 0 0 0 0 0 0 0 0 0 0 0 0 0 0 0 0 0 0 0 0 0 0 0 0 0 0 0 0 0 0 0 0 0 0 0 0 0 0 0 0 0 0
0 0 0 0 0 0 0 0 0 0 0 0 0 0 0 0 0 0 0 0 0 0 0 0 0 0 0 0 0 0 0 0 0 0 0 0 0 0 0 0 0 0 0 0 0 0 0 0 0
0 0 0 0 0 0 0 0 0 0 0 0 0 0 0 0 0 0 0 0 0 0 0 0 0 0 0 0 0 0 0 0 0 0 0 0 0 0 0 0 0 0 0 0 0 0 0 0 0
0 0 0 0 0 0 0 0 0 0 0 0 0 0 0 0 0 0 0 0 0 0 0 0 0 0 0 0 0 0 0 0 0 0 0 0 0 0 0 0 0 0 0 0 0 0 0 0 0
0 0 0 0 0 0 0 0 0 0 0 0 0 0 0 0 0 0 0 0 0 0 0 0 0 0 0 0 0 0 0 0 0 0 0 0 0 0 0 0 0 0 0 0 0 0 0 0 0
0 0 0 0 0 0 0 0 0 0 0 0 0 0 0 0 0 0 0 0 0 0 0 0 0 0 0 0 0 0 0 0 0 0 0 0 0 0 0 0 0 0 0 0 0 0 0 0 0
0 0 0 0 0 0 0 0 0 0 0 0 0 0 0 0 0 0 0 0 0 0 0 0 0 0 0 0 0 0 0 0 0 0 0 0 0 0 0 0 0 0 0 0 0 0 0 0 0
Wind_Speed
25 22 19 18 18 17 16 17 20 19 20 19 18 17 16 16 17 18 11 10 8 7 8 10 11 12 13 15 16 16 16 16 16 17 18 18 19 20 20 20 21 21 22 23 24 25 24 24 24
22 20 17 20 18 16 19 21 19 20 18 15 15 17 16 17 15 10 10 9 8 8 8 10 10 12 13 14 15 15 16 16 16 17 17 18 18 20 20 21 22 22 23 24 25 25 25 25 26
19 17 20 19 21 20 25 22 21 14 13 15 16 16 17 16 11 8 10 7 7 8 9 10 10 11 12 13 14 15 16 16 17 17 18 18 19 20 20 21 22 23 24 24 25 25 26 26 25
17 16 20 21 21 25 30 18 16 14 16 16 16 16 15 16 10 10 6 7 7 8 9 10 10 11 12 12 13 14 15 16 17 18 18 19 19 20 21 21 22 23 23 24 25 24 25 25 24
15 19 22 23 26 31 23 23 19 16 15 14 13 17 17 13 10 6 6 6 6 7 8 9 10 11 12 13 13 14 14 16 17 18 19 20 20 20 21 22 22 23 24 24 25 25 25 25 23
18 18 22 24 30 27 22 22 19 18 17 16 16 15 17 10 7 7 6 6 6 6 7 8 10 11 12 13 13 14 15 15 17 18 19 19 21 21 22 23 23 24 24 25 25 25 24 23 23
21 21 25 32 35 31 23 20 22 21 19 19 20 18 17 10 8 6 7 7 7 7 8 9 9 10 11 13 14 14 15 16 17 18 19 20 21 22 23 23 24 24 24 24 23 23 22 23 23
20 25 28 28 32 33 24 19 24 23 21 19 19 20 20 8 5 6 7 7 7 7 8 8 9 10 11 12 13 14 15 16 17 18 19 20 21 22 23 24 24 24 23 23 21 21 22 21 21
19 25 28 30 30 26 22 23 21 22 21 21 19 21 18 3 3 5 7 7 7 8 8 9 9 10 10 11 12 14 15 17 18 18 20 20 21 22 23 22 21 21 21 20 20 20 19 20 21
19 25 29 30 24 32 29 27 25 24 21 22 21 19 11 5 4 5 6 7 7 7 8 9 9 10 10 11 12 14 15 17 18 19 19 19 19 19 19 19 19 19 19 20 20 20 20 20 19
21 29 29 25 25 28 29 29 24 27 28 24 22 17 11 7 7 7 7 7 7 7 8 8 9 10 11 11 12 14 15 16 17 18 18 18 18 18 18 18 18 18 19 19 19 20 20 20 19
27 24 24 26 25 28 29 26 29 28 27 23 21 14 12 10 9 8 7 6 6 7 8 8 9 10 11 11 13 13 14 15 16 18 18 18 18 18 17 17 17 17 18 18 19 19 19 20 20
27 26 23 23 25 27 31 34 35 33 29 25 22 14 14 13 11 10 9 7 7 8 8 9 9 10 10 12 13 14 14 15 16 17 18 17 17 16 16 16 16 16 17 17 18 18 19 19 19
24 24 26 25 27 27 30 31 33 35 26 25 20 18 15 14 13 11 10 10 9 9 9 10 10 10 10 12 13 13 14 14 15 16 16 16 16 15 15 15 15 16 17 17 18 18 18 19 19
23 28 27 26 25 29 27 36 35 31 24 20 24 20 17 16 14 13 12 11 11 11 10 10 10 10 10 10 12 13 13 13 14 14 15 15 15 15 14 14 15 16 16 17 18 18 19 19 19
23 25 31 24 23 27 23 46 34 22 21 29 23 21 20 17 16 15 13 13 12 12 12 11 11 10 9 10 11 11 12 12 12 13 13 14 14 14 13 14 14 15 16 17 17 18 18 19 19
22 35 28 30 22 25 24 38 26 21 21 22 22 22 21 19 18 16 15 15 14 13 12 12 11 10 9 8 10 10 10 10 11 12 12 13 13 13 13 13 14 15 15 16 17 17 18 18 19
27 27 28 29 23 23 28 38 34 27 26 25 19 20 21 20 19 18 17 16 15 13 12 11 10 9 8 8 8 9 9 10 10 10 11 11 12 12 12 13 13 14 14 15 16 17 18 18 19
33 34 32 29 24 29 30 40 41 33 30 28 26 22 21 24 20 19 18 17 15 14 13 12 10 8 7 8 7 8 8 8 8 9 9 10 11 11 11 11 12 12 13 14 15 16 17 17 18
29 32 34 35 26 30 38 46 47 42 36 25 28 27 26 24 22 20 19 18 17 15 14 12 10 9 8 8 8 9 7 7 6 7 8 9 9 10 10 10 10 11 12 13 14 14 15 15 15
30 32 32 34 32 31 40 55 41 35 30 29 27 26 27 25 23 21 20 19 17 17 16 13 11 10 9 8 9 9 9 6 6 5 6 7 8 9 9 9 9 10 11 11 12 13 13 14 14
32 28 30 32 32 37 25 53 39 36 28 28 26 26 25 25 24 22 21 20 19 18 15 14 12 11 10 10 10 8 7 5 4 3 5 5 7 8 8 9 9 9 10 10 11 11 12 13 13
29 26 28 30 33 38 33 39 40 28 30 28 27 26 27 25 24 23 22 21 19 18 17 15 13 13 12 12 12 10 10 8 5 4 2 4 5 6 7 8 8 9 9 10 10 11 12 12 13
23 26 27 28 31 37 32 31 56 38 35 29 26 23 22 23 23 23 21 20 19 18 16 15 15 14 14 13 13 11 11 8 6 4 3 2 3 4 5 6 8 8 9 10 11 11 12 14 15
22 24 32 34 33 40 31 33 28 33 39 36 35 31 23 18 19 21 21 20 20 19 18 17 17 17 16 14 14 12 11 9 7 5 4 2 2 3 3 5 6 8 9 10 11 12 13 14 15
20 24 28 37 37 40 28 32 35 28 34 34 33 30 28 20 16 17 19 20 21 20 19 19 19 18 17 15 14 13 12 10 9 7 6 5 5 5 4 6 7 8 8 9 10 12 14 15 16
21 26 24 33 33 40 36 38 39 35 33 32 31 30 29 26 20 17 19 20 21 21 20 20 21 19 18 16 14 13 12 11 9 7 7 7 7 7 5 7 7 8 9 11 12 13 14 15 16
23 21 25 25 35 40 35 35 35 37 33 29 27 29 28 26 21 18 18 20 22 21 20 21 22 20 18 16 15 13 12 11 10 8 8 8 8 8 7 8 9 9 10 11 13 14 15 16 17
25 28 25 26 29 37 44 33 25 28 24 25 31 31 32 29 25 21 19 19 20 21 22 22 22 20 19 17 15 14 13 12 11 10 9 10 9 9 10 10 10 11 12 13 14 16 16 18 19
26 28 24 31 32 34 40 48 37 39 35 33 32 30 31 29 25 23 20 18 19 21 23 22 21 21 19 17 16 15 14 13 12 12 11 10 10 10 11 11 12 13 14 14 16 17 18 19 20
Wind_Direction
285 290 295 292 289 289 282 280 285 291 292 295 299 299 299 303 304 305 354 358 11 9 4 348 339 341 342 341 339 339 339 337 338 336 335 334 334 334 335 337 337 337 337 339 340 342 341 338 334
291 292 295 287 285 280 289 281 285 286 296 304 303 300 300 299 318 338 349 5 13 8 5 354 348 343 342 344 346 347 342 338 340 343 345 346 348 346 344 343 341 340 338 338 337 336 337 335 332
294 294 285 286 278 276 286 290 287 294 298 298 301 302 302 306 321 336 351 15 14 8 5 355 346 345 348 349 347 344 345 345 344 345 345 347 347 349 349 347 343 341 338 336 335 335 335 333 334
297 292 286 280 281 280 277 298 297 293 296 296 300 301 311 311 324 326 11 13 11 4 4 354 350 347 351 352 351 347 343 341 340 340 341 342 345 347 346 345 345 343 341 339 340 340 338 336 338
301 290 280 280 278 276 289 289 290 289 296 294 295 299 303 311 329 2 2 4 6 2 4 357 349 348 348 350 351 350 348 343 340 339 338 339 339 342 343 343 342 341 340 339 338 338 338 338 343
293 290 283 278 278 280 288 288 286 286 292 294 291 298 302 317 323 334 345 345 350 354 353 354 347 344 346 347 349 350 349 347 344 341 341 340 338 341 342 341 342 340 339 337 337 338 341 345 341
289 286 282 280 278 282 285 290 283 283 286 287 294 291 302 302 311 325 330 333 334 337 335 335 342 348 348 344 344 345 346 345 343 340 339 338 337 335 332 334 338 340 340 340 342 345 350 349 350
297 291 284 282 281 281 290 291 289 284 282 291 290 291 296 286 303 318 323 326 329 329 330 332 336 338 339 343 343 343 343 343 343 341 338 337 338 338 334 333 333 335 339 344 347 351 354 359 359
300 288 284 283 286 289 294 287 293 291 286 284 289 293 303 287 299 307 310 313 317 320 322 325 330 335 339 343 343 345 341 339 338 339 338 339 338 336 339 341 342 345 352 358 358 360 4 10 7
291 287 287 290 285 282 286 287 290 289 283 282 284 292 298 286 272 282 290 297 305 310 314 320 326 329 334 338 342 342 341 340 338 338 338 342 344 347 350 355 356 355 1 4 4 4 6 5 5
295 284 291 292 291 289 285 283 286 285 280 282 281 278 274 267 267 275 281 290 300 307 313 318 322 327 330 334 338 341 343 343 345 344 343 347 348 350 351 352 353 355 359 2 3 5 7 10 11
290 294 292 295 294 290 289 290 285 282 285 293 290 271 265 262 262 265 270 280 290 297 308 314 318 323 328 332 333 338 340 342 341 340 340 343 344 346 349 353 357 358 2 6 10 13 17 19 20
291 292 296 295 297 291 284 286 284 281 285 288 289 277 266 264 264 268 271 276 282 287 298 304 313 319 324 324 327 331 336 338 340 340 339 340 343 347 353 356 360 3 7 10 14 17 20 21 21
304 296 296 296 294 295 288 289 287 285 279 283 281 277 271 263 261 262 261 265 270 281 290 298 306 314 319 320 322 328 333 337 339 340 342 345 350 355 0 5 9 12 14 16 20 22 25 26 26
302 296 296 293 296 292 295 283 281 285 279 283 278 275 269 264 259 257 260 262 266 277 286 292 299 309 314 318 319 324 328 333 339 347 348 351 353 1 13 17 18 22 27 29 30 31 32 31 30
304 301 293 301 294 293 291 281 296 275 280 274 274 272 268 261 257 258 257 261 266 274 279 287 294 299 307 314 317 322 327 333 339 346 350 354 358 7 19 26 26 31 31 34 32 31 32 31 29
299 290 293 296 293 295 285 289 293 293 286 280 275 271 267 264 257 255 257 260 264 270 273 278 284 289 297 307 314 321 329 333 336 345 353 359 6 13 26 30 34 37 36 33 34 34 36 36 36
294 294 297 293 304 294 290 284 288 291 286 282 277 271 264 261 253 254 256 259 262 266 267 270 275 280 287 298 308 315 320 325 339 349 1 9 13 21 34 36 39 40 36 34 36 38 39 43 45
290 293 293 298 304 298 291 286 283 288 283 281 276 271 266 266 262 257 257 257 258 260 258 260 263 263 271 280 288 297 304 318 334 353 7 12 18 25 35 40 38 36 34 39 43 46 46 46 50
288 289 290 294 299 299 295 287 280 282 280 276 276 271 268 267 260 255 253 253 252 250 250 251 249 248 259 269 279 286 294 311 336 353 1 8 15 25 34 38 37 39 43 47 47 48 45 44 50
287 286 291 293 299 298 297 283 290 288 278 275 271 270 269 261 256 251 247 245 244 243 245 241 237 237 244 256 268 275 286 305 319 350 3 6 10 18 24 28 30 36 45 47 49 49 44 39 42
288 292 293 293 296 294 304 286 291 293 292 284 278 272 263 257 254 248 244 240 238 240 237 233 230 231 237 244 252 251 263 271 299 334 356 7 0 7 16 25 28 28 32 37 37 36 35 35 29
290 299 296 296 293 294 293 293 295 300 293 292 289 278 270 262 252 245 241 239 238 234 232 232 228 227 232 239 247 249 264 274 284 307 353 2 12 12 13 21 24 21 18 16 17 18 15 12 10
297 296 297 297 294 289 291 289 271 293 294 299 299 295 282 266 255 252 245 238 234 228 223 221 218 221 232 233 242 246 256 261 262 273 291 337 12 18 14 11 8 9 8 4 2 1 360 358 358
287 291 290 289 287 288 297 289 276 297 292 298 297 299 296 281 259 249 238 229 223 218 221 221 217 225 228 230 237 245 254 256 256 258 272 286 318 337 353 353 353 354 355 354 351 350 349 348 349
279 283 285 287 288 291 298 290 296 304 302 302 298 298 297 290 272 249 235 227 224 220 220 220 219 225 225 227 233 242 252 258 265 263 274 283 294 308 321 330 333 337 342 345 343 343 340 340 341
286 280 292 290 293 291 291 293 296 302 304 303 302 302 297 292 281 264 251 236 231 225 220 219 222 226 225 226 232 237 246 254 260 261 275 282 291 297 301 313 318 322 325 327 329 330 332 334 335
287 295 289 287 289 287 292 296 295 298 300 315 323 315 305 297 287 271 255 243 238 231 226 225 227 225 225 226 227 233 239 247 258 261 266 275 283 288 290 298 305 311 315 318 320 321 323 324 326
279 281 285 290 287 289 288 293 309 309 319 317 319 319 312 307 292 280 264 250 241 235 229 225 225 226 227 225 229 231 236 241 251 257 262 270 278 281 285 291 297 302 307 311 313 315 317 318 320
284 282 278 281 286 285 286 280 291 292 305 313 315 320 322 321 306 288 270 253 240 232 229 224 226 227 230 231 233 236 239 243 250 258 263 267 272 278 283 288 293 297 301 305 308 310 313 314 315